Weather History for Antigo, WI

Change the Weather History Date:

Thursday, June 27, 2013

  Actual Average Record
Temperature  
Mean Temperature 69 °F -  
Max Temperature 79 °F 79 °F 94 °F (1971)
Min Temperature 59 °F 53 °F 38 °F (1992)
Cooling Degree Days 4    
Growing Degree Days 19 (Base 50)    
Moisture  
Dew Point 64 °F    
Average Humidity 87    
Maximum Humidity 99    
Minimum Humidity 60    
Precipitation  
Precipitation 0.36 in - - ()
Sea Level Pressure  
Sea Level Pressure 29.78 in    
Wind  
Wind Speed 4 mph (West)    
Max Wind Speed 18 mph    
Max Gust Speed 31 mph    
Visibility 10 miles    
Events Rain    
Averages and records for this station are not official NWS values.
T = Trace of Precipitation, MM = Missing Value Source: NWS Daily Summary

Daily Weather History Graph

Daily Weather History Graph

Search for Another Location

Airport:

Trip Planner

Search our weather history database for the weather conditions in past years. The results will help you decide how hot, cold, wet, or windy it might be!

Date:

Astronomy

Jun. 27, 2013 Rise Set
Actual Time 5:11 AM CDT 8:47 PM CDT
Civil Twilight 4:33 AM CDT 9:25 PM CDT
Nautical Twilight 3:43 AM CDT 10:15 PM CDT
Astronomical Twilight 2:37 AM CDT 11:21 PM CDT
Moon 11:28 PM CDT (6/27) 10:26 AM CDT (6/27)
Length of Visible Light 16h 51m
Length of Day
15h 36m
Waning Gibbous, 76% of the Moon is Illuminated
Jun 27
Waning Gibbous
Jun 29
Last Quarter
Jul 8
New
Jul 15
First Quarter
Jul 22
Full

Hourly Weather History & Observations

Time (CDT) Temp. Dew Point Humidity Pressure Visibility Wind Dir Wind Speed Gust Speed Precip Events Conditions
12:15 AM 65.8 °F 63.9 °F 93% 29.81 in 10.0 mi Calm Calm - N/A   Overcast
12:35 AM 65.8 °F 64.0 °F 94% 29.81 in 10.0 mi Calm Calm - N/A Rain Light Rain
12:55 AM 65.5 °F 64.4 °F 96% 29.81 in 10.0 mi NNE 4.6 mph - N/A   Overcast
1:15 AM 66.4 °F 65.5 °F 97% 29.81 in 10.0 mi East 8.1 mph - N/A   Overcast
1:35 AM 66.2 °F 65.3 °F 97% 29.81 in 10.0 mi SE 5.8 mph - N/A   Overcast
1:55 AM 66.2 °F 65.3 °F 97% 29.82 in 10.0 mi East 6.9 mph - N/A   Overcast
2:15 AM 66.0 °F 64.4 °F 94% 29.82 in 10.0 mi NE 4.6 mph - N/A   Overcast
2:35 AM 64.8 °F 63.3 °F 95% 29.81 in 10.0 mi East 5.8 mph - N/A   Overcast
2:55 AM 63.9 °F 62.1 °F 94% 29.81 in 10.0 mi SE 3.5 mph - N/A   Overcast
3:15 AM 63.0 °F 61.7 °F 96% 29.81 in 10.0 mi SSE 3.5 mph - N/A   Overcast
3:35 AM 62.6 °F 61.7 °F 97% 29.81 in 10.0 mi Calm Calm - N/A   Mostly Cloudy
3:55 AM 62.6 °F 61.3 °F 96% 29.81 in 10.0 mi Calm Calm - N/A   Scattered Clouds
4:15 AM 62.6 °F 61.9 °F 97% 29.81 in 10.0 mi Calm Calm - N/A   Mostly Cloudy
4:35 AM 63.0 °F 62.1 °F 97% 29.81 in 10.0 mi Calm Calm - N/A   Overcast
4:55 AM 63.0 °F 61.9 °F 96% 29.81 in 10.0 mi Calm Calm - N/A   Overcast
5:15 AM 63.5 °F 62.2 °F 96% 29.81 in 10.0 mi Calm Calm - N/A   Overcast
5:35 AM 63.5 °F 62.6 °F 97% 29.81 in 10.0 mi Calm Calm - N/A   Overcast
5:55 AM 63.7 °F 62.8 °F 97% 29.81 in 10.0 mi Calm Calm - N/A   Overcast
6:15 AM 63.9 °F 62.8 °F 96% 29.81 in 10.0 mi Calm Calm - N/A   Overcast
6:35 AM 64.4 °F 63.1 °F 96% 29.81 in 10.0 mi Calm Calm - N/A   Overcast
6:55 AM 64.6 °F 63.5 °F 96% 29.82 in 10.0 mi WSW 3.5 mph - N/A   Mostly Cloudy
7:15 AM 65.5 °F 64.2 °F 96% 29.82 in 10.0 mi Calm Calm - N/A   Mostly Cloudy
7:35 AM 65.7 °F 64.6 °F 96% 29.81 in 10.0 mi WSW 3.5 mph - N/A   Overcast
7:55 AM 66.6 °F 65.3 °F 96% 29.81 in 10.0 mi West 5.8 mph - N/A   Overcast
8:15 AM 68.4 °F 66.6 °F 94% 29.81 in 5.0 mi WNW 8.1 mph - N/A   Overcast
8:35 AM 69.4 °F 66.4 °F 90% 29.81 in 7.0 mi NW 4.6 mph - N/A   Mostly Cloudy
8:55 AM 70.7 °F 67.5 °F 89% 29.81 in 7.0 mi WNW 8.1 mph - N/A   Mostly Cloudy
9:15 AM 71.8 °F 67.5 °F 86% 29.81 in 10.0 mi NW 6.9 mph - N/A   Scattered Clouds
9:35 AM 72.3 °F 67.1 °F 84% 29.80 in 10.0 mi WNW 8.1 mph - N/A   Clear
9:55 AM 72.5 °F 67.3 °F 84% 29.80 in 10.0 mi West 11.5 mph - N/A   Scattered Clouds
10:15 AM 72.0 °F 66.4 °F 83% 29.79 in 10.0 mi West 8.1 mph - N/A   Scattered Clouds
10:35 AM 72.7 °F 66.4 °F 81% 29.78 in 10.0 mi WNW 5.8 mph - N/A   Clear
10:55 AM 73.4 °F 66.2 °F 78% 29.78 in 10.0 mi WNW 5.8 mph - N/A   Clear
11:15 AM 72.5 °F 66.7 °F 82% 29.79 in 10.0 mi West 5.8 mph - N/A   Clear
11:35 AM 72.0 °F 66.7 °F 84% 29.79 in 10.0 mi West 6.9 mph - N/A   Clear
11:55 AM 71.8 °F 66.6 °F 84% 29.79 in 10.0 mi West 6.9 mph - N/A   Scattered Clouds
12:15 PM 73.4 °F 67.3 °F 81% 29.78 in 10.0 mi West 10.4 mph - N/A   Scattered Clouds
12:35 PM 73.6 °F 67.5 °F 81% 29.78 in 10.0 mi WNW 9.2 mph - N/A   Scattered Clouds
12:55 PM 73.9 °F 66.4 °F 77% 29.78 in 10.0 mi West 9.2 mph - N/A   Scattered Clouds
1:15 PM 76.8 °F 64.9 °F 67% 29.76 in 10.0 mi West 10.4 mph - N/A   Scattered Clouds
1:35 PM 75.2 °F 63.0 °F 66% 29.76 in 10.0 mi West 10.4 mph - N/A   Mostly Cloudy
1:55 PM 77.0 °F 63.9 °F 64% 29.76 in 10.0 mi West 8.1 mph - N/A   Mostly Cloudy
2:15 PM 78.8 °F 65.7 °F 64% 29.76 in 10.0 mi West 13.8 mph - N/A   Scattered Clouds
2:35 PM 79.0 °F 64.0 °F 60% 29.76 in 10.0 mi WNW 10.4 mph - N/A   Scattered Clouds
2:55 PM 79.9 °F 65.1 °F 61% 29.74 in 10.0 mi West 10.4 mph - N/A   Mostly Cloudy
3:15 PM 79.7 °F 65.5 °F 62% 29.73 in 10.0 mi WSW 10.4 mph 17.3 mph N/A   Scattered Clouds
3:35 PM 78.8 °F 64.9 °F 62% 29.71 in 10.0 mi West 10.4 mph 17.3 mph N/A   Clear
3:55 PM 76.1 °F 63.3 °F 64% 29.71 in 10.0 mi WSW 9.2 mph - N/A   Scattered Clouds
4:15 PM 70.3 °F 61.7 °F 74% 29.79 in 4.0 mi WNW 18.4 mph 31.1 mph 0.14 in Rain Heavy Rain
4:35 PM 64.0 °F 60.4 °F 88% 29.75 in 7.0 mi North 6.9 mph 10.4 mph 0.30 in Rain Light Rain
4:55 PM 67.6 °F 57.6 °F 70% 29.74 in 10.0 mi Calm Calm - 0.30 in   Scattered Clouds
5:15 PM 69.8 °F 59.5 °F 70% 29.74 in 10.0 mi South 5.8 mph - N/A   Clear
5:35 PM 69.1 °F 62.6 °F 80% 29.74 in 10.0 mi South 5.8 mph - N/A   Clear
5:55 PM 68.7 °F 62.4 °F 80% 29.73 in 10.0 mi SW 4.6 mph - N/A   Clear
6:15 PM 68.0 °F 63.3 °F 85% 29.73 in 10.0 mi SSW 3.5 mph - N/A   Clear
6:35 PM 68.0 °F 63.7 °F 86% 29.75 in 10.0 mi NW 5.8 mph - 0.01 in Rain Light Rain
6:55 PM 66.4 °F 63.5 °F 90% 29.75 in 10.0 mi West 3.5 mph - 0.03 in Rain Rain
7:15 PM 65.8 °F 63.0 °F 90% 29.77 in 10.0 mi West 8.1 mph - 0.01 in Rain Light Rain
7:35 PM 64.9 °F 63.1 °F 94% 29.75 in 10.0 mi Calm Calm - 0.01 in   Overcast
7:55 PM 65.1 °F 61.5 °F 88% 29.75 in 10.0 mi NNW 3.5 mph - 0.01 in   Overcast
8:15 PM 64.6 °F 61.9 °F 91% 29.75 in 10.0 mi Calm Calm - N/A Rain Light Rain
8:35 PM 64.0 °F 61.9 °F 93% 29.75 in 10.0 mi West 5.8 mph - N/A   Scattered Clouds
8:55 PM 64.0 °F 62.2 °F 94% 29.76 in 10.0 mi West 8.1 mph - N/A   Scattered Clouds
9:15 PM 64.4 °F 61.0 °F 89% 29.76 in 10.0 mi WNW 4.6 mph - N/A   Mostly Cloudy
9:35 PM 63.9 °F 61.0 °F 90% 29.76 in 10.0 mi West 3.5 mph - 0.01 in Rain Rain
9:55 PM 62.8 °F 61.0 °F 94% 29.76 in 10.0 mi WNW 3.5 mph - 0.02 in   Mostly Cloudy
10:15 PM 61.7 °F 60.4 °F 96% 29.75 in 10.0 mi Calm Calm - N/A   Mostly Cloudy
10:35 PM 61.5 °F 60.3 °F 96% 29.75 in 10.0 mi NNW 3.5 mph - N/A   Scattered Clouds
10:55 PM 60.3 °F 59.5 °F 97% 29.74 in 10.0 mi Calm Calm - N/A   Clear
11:15 PM 59.7 °F 59.2 °F 98% 29.74 in 10.0 mi Calm Calm - N/A   Clear
11:35 PM 59.0 °F 58.8 °F 99% 29.74 in 10.0 mi Calm Calm - N/A   Mostly Cloudy
11:55 PM 60.3 °F 59.9 °F 99% 29.74 in 10.0 mi Calm Calm - N/A   Overcast